"Pseudo-MPEC" for JumF1Il

Created 2025 Feb 9 21:31:08 UT using Find_Orb

Click here for an explanation of pseudo-MPECs

 
 Astrometry: 
     JumF1Il*!C2025 02 03.21493 11 09 17.16 -24 34 30.8    ~24Jl 22.9 rXNEOCPW84
     JumF1Il !C2025 02 03.21668 11 09 17.41 -24 34 34.5    ~24Jl 23.0 rXNEOCPW84
     JumF1Il !C2025 02 03.21844 11 09 17.63 -24 34 37.5    ~24Jl 22.9 rXNEOCPW84
     JumF1Il !C2025 02 03.22019 11 09 17.88 -24 34 41.0    ~24Jl 22.7 rXNEOCPW84
     JumF1Il !C2025 02 03.22370 11 09 18.35 -24 34 47.6    ~24Jl 22.8 rXNEOCPW84
     JumF1Il !C2025 02 03.22544 11 09 18.60 -24 34 51.1    ~24Jl 22.8 rXNEOCPW84
     JumF1Il !C2025 02 03.22895 11 09 19.09 -24 34 57.9    ~24LH 23.4 iXNEOCPW84
     JumF1Il !C2025 02 03.23949 11 09 20.55 -24 35 18.2    ~24LH 22.9 iXNEOCPW84
     JumF1Il !C2025 02 03.24302 11 09 21.04 -24 35 25.1    ~24LH 22.8 iXNEOCPW84
     JumF1Il !C2025 02 03.24652 11 09 21.49 -24 35 31.3    ~24LH 22.9 iXNEOCPW84

Station data:
(W84) Cerro Tololo-DECam  (S30.169594 W70.806420)  Chile.  Observer F. Valdes.
    Measurer S. Deen. 4.0-m reflector + CCD.

Orbital elements:  JumF1Il
   Perihelion 2025 Mar 19.31316 +/- 29.6 TT =  7:30:57 (JD 2460753.81316)
Epoch 2025 Feb  3.0 TT = JDT 2460709.5   Earth MOID: 0.0986      AutoNEOCP
M 335.20407603 +/- 34               (J2000 ecliptic)
n   0.55956112 +/- 0.464            Peri.  332.89804 +/- 90
a   1.45849303 +/- 0.807            Node   209.85674 +/- 48
e   0.2525780 +/- 0.237             Incl.    5.79199 +/- 21
P   1.761/643.349d         H 24.35  G  0.15   U 12.2  SR
q 1.09010967 +/- 0.366    Q 1.82687639 +/- 55.2
From 10 observations 2025 Feb. 3 (45.5 min); mean residual 0".15
Residuals in arcseconds: 
250203 W84  .08+  .06+    250203 W84  .21-  .17+    250203 W84  .21+  .24-    
250203 W84  .19+  .26-    250203 W84  .07-  .01+    250203 W84  .21-  .26+    
250203 W84  .13-  .13+    250203 W84  .01+  .04-    
250203 W84  .01-  .01+    250203 W84  .14+  .10-    

Ephemerides (geocentric):
Date (UTC) HH   RA             Dec           delta  r     elong  mag " sig PA
---- --------  ------------   ------------  ------ ------ -----  --- --------
2025 02 09 22  11 27 15.864   -28 00 38.29  .21054 1.1321 129.4 22.9  60d 108
2025 02 09 23  11 27 23.016   -28 01 52.79  .21041 1.1321 129.4 22.9  60d 108
2025 02 10 00  11 27 30.174   -28 03 07.26  .21028 1.1320 129.4 22.9  60d 108
2025 02 10 01  11 27 37.338   -28 04 21.70  .21015 1.1319 129.4 22.9  60d 108
2025 02 10 02  11 27 44.508   -28 05 36.10  .21001 1.1318 129.4 22.9  61d 108
2025 02 10 03  11 27 51.684   -28 06 50.46  .20988 1.1317 129.4 22.9  61d 108
2025 02 10 04  11 27 58.866   -28 08 04.79  .20975 1.1316 129.4 22.9  61d 108
2025 02 10 05  11 28 06.054   -28 09 19.08  .20961 1.1315 129.4 22.9  61d 108
2025 02 10 06  11 28 13.247   -28 10 33.34  .20948 1.1314 129.4 22.9  61d 108
2025 02 10 07  11 28 20.447   -28 11 47.56  .20935 1.1313 129.4 22.9  61d 108
2025 02 10 08  11 28 27.653   -28 13 01.74  .20922 1.1313 129.4 22.9  61d 108
2025 02 10 09  11 28 34.864   -28 14 15.88  .20909 1.1312 129.4 22.9  61d 108
2025 02 10 10  11 28 42.082   -28 15 29.99  .20895 1.1311 129.4 22.9  61d 108
2025 02 10 11  11 28 49.305   -28 16 44.06  .20882 1.1310 129.4 22.9  61d 108
2025 02 10 12  11 28 56.535   -28 17 58.09  .20869 1.1309 129.4 22.9  62d 108
2025 02 10 13  11 29 03.770   -28 19 12.09  .20856 1.1308 129.4 22.9  62d 108
2025 02 10 14  11 29 11.012   -28 20 26.05  .20843 1.1307 129.4 22.9  62d 108
2025 02 10 15  11 29 18.260   -28 21 39.97  .20830 1.1306 129.4 22.9  62d 108
2025 02 10 16  11 29 25.513   -28 22 53.85  .20816 1.1305 129.4 22.9  62d 108
2025 02 10 17  11 29 32.773   -28 24 07.69  .20803 1.1305 129.4 22.9  62d 108
2025 02 10 18  11 29 40.039   -28 25 21.50  .20790 1.1304 129.4 22.9  62d 108
2025 02 10 19  11 29 47.310   -28 26 35.27  .20777 1.1303 129.4 22.9  62d 108
2025 02 10 20  11 29 54.588   -28 27 49.00  .20764 1.1302 129.4 22.9  62d 108
2025 02 10 21  11 30 01.872   -28 29 02.69  .20751 1.1301 129.4 22.9  62d 108
2025 02 10 22  11 30 09.162   -28 30 16.34  .20738 1.1300 129.4 22.9  62d 108
2025 02 10 23  11 30 16.458   -28 31 29.95  .20725 1.1299 129.4 22.9  62d 108
2025 02 11 00  11 30 23.761   -28 32 43.53  .20712 1.1298 129.4 22.8  63d 108
2025 02 11 01  11 30 31.069   -28 33 57.06  .20699 1.1298 129.4 22.8  63d 108
2025 02 11 02  11 30 38.383   -28 35 10.56  .20686 1.1297 129.4 22.8  63d 108
2025 02 11 03  11 30 45.704   -28 36 24.02  .20673 1.1296 129.4 22.8  63d 108
2025 02 11 04  11 30 53.031   -28 37 37.43  .20660 1.1295 129.4 22.8  63d 108
2025 02 11 05  11 31 00.363   -28 38 50.81  .20647 1.1294 129.4 22.8  63d 108
2025 02 11 06  11 31 07.702   -28 40 04.15  .20634 1.1293 129.4 22.8  63d 108
2025 02 11 07  11 31 15.047   -28 41 17.45  .20621 1.1292 129.4 22.8  63d 108
2025 02 11 08  11 31 22.399   -28 42 30.70  .20608 1.1291 129.4 22.8  63d 108
2025 02 11 09  11 31 29.756   -28 43 43.92  .20595 1.1291 129.4 22.8  63d 108
2025 02 11 10  11 31 37.120   -28 44 57.10  .20582 1.1290 129.4 22.8  63d 108
2025 02 11 11  11 31 44.490   -28 46 10.23  .20569 1.1289 129.4 22.8  63d 108
2025 02 11 12  11 31 51.866   -28 47 23.33  .20556 1.1288 129.4 22.8  63d 108
2025 02 11 13  11 31 59.248   -28 48 36.38  .20543 1.1287 129.4 22.8  63d 108
2025 02 11 14  11 32 06.636   -28 49 49.40  .20530 1.1286 129.4 22.8  64d 108
2025 02 11 15  11 32 14.031   -28 51 02.37  .20517 1.1285 129.4 22.8  64d 108
2025 02 11 16  11 32 21.432   -28 52 15.30  .20504 1.1285 129.4 22.8  64d 108
2025 02 11 17  11 32 28.839   -28 53 28.19  .20492 1.1284 129.4 22.8  64d 108
2025 02 11 18  11 32 36.252   -28 54 41.04  .20479 1.1283 129.4 22.8  64d 108
2025 02 11 19  11 32 43.672   -28 55 53.84  .20466 1.1282 129.4 22.8  64d 108
2025 02 11 20  11 32 51.098   -28 57 06.61  .20453 1.1281 129.4 22.8  64d 108
2025 02 11 21  11 32 58.530   -28 58 19.33  .20440 1.1280 129.4 22.8  64d 108